Location: Bower School (historical)
(37.8389°N, 89.5348°W)
Time: 22:24:32
(UTC+00:00)

Daily predictions for brighter satellites

Satellite Brightness Start Highest point End
(mag) Time Altitude Azimuth Time Altitude Azimuth Time Altitude Azimuth
Cosmos 2221 3.2 12:04:45 10° N 12:08:48 53° E 12:12:50 10° SSE
OAO 2 Rocket 3.8 12:05:53 10° WSW 12:11:00 61° S 12:16:02 10° E
Cosmos 1758 Rocket 3.7 12:09:05 10° SSW 12:13:24 52° W 12:17:42 10° N
Cosmos 1484 Rocket 3.0 12:11:07 10° N 12:14:14 35° WNW 12:17:19 10° SW
BREEZE-M DEB (TANK) 4.5 12:12:42 10° SW 12:17:25 77° SE 12:38:08 10° NE
NOSS 8 (A) 4.4 12:16:39 10° NNW 12:19:40 74° ENE 12:23:18 10° SE
Cosmos 1437 Rocket 3.4 12:19:15 10° N 12:22:38 50° E 12:26:01 10° SSE
BREEZE-M DEB (TANK) 3.2 12:18:00 10° SW 12:22:39 70° SE 12:25:03 10° ENE
Helios 1A Rocket 3.8 12:21:05 10° SSW 12:23:38 20° W 12:26:12 10° NW
ISS -1.9 12:22:00 10° SSW 12:25:07 36° SE 12:28:14 10° ENE
[s.n.66875] 2.5 12:25:53 10° SW 12:28:19 44° SSE 12:30:46 10° ENE
[s.n.66873] 2.5 12:26:34 10° SW 12:29:01 45° SSE 12:31:28 10° ENE
[s.n.66876] 2.4 12:27:02 10° SW 12:29:29 45° SSE 12:31:57 10° ENE
Cosmos 2360 Rocket 2.4 12:24:51 10° NNW 12:30:17 52° WSW 12:35:41 10° S
[s.n.66874] 2.4 12:27:50 10° SW 12:30:17 46° SSE 12:32:45 10° ENE
[s.n.66872] 2.4 12:28:37 10° SW 12:31:05 47° SSE 12:33:33 10° ENE
[s.n.66871] 2.3 12:29:10 10° SW 12:31:37 48° SSE 12:34:06 10° ENE
[s.n.66870] 2.3 12:29:58 10° SW 12:32:27 49° SSE 12:34:56 10° ENE
[s.n.66869] 2.3 12:30:45 10° SW 12:33:14 50° SSE 12:35:44 10° ENE
CZ-2D R/B 2.7 12:30:10 10° N 12:33:20 82° WNW 12:36:30 10° SSW
[s.n.66868] 2.2 12:31:23 10° SW 12:33:51 50° SSE 12:36:21 10° ENE
COSMO-SKYMED 1 4.0 12:31:37 10° SW 12:34:24 17° W 12:37:11 10° NW
Cosmos 405 Rocket 3.9 12:32:32 10° WSW 12:34:41 16° WNW 12:36:50 10° NNW
ATLAS 3B R/B 4.2 12:28:01 10° NNW 12:35:04 35° NE 12:41:45 10° ESE
Cosmos 2333 Rocket 3.1 12:31:26 10° NW 12:36:22 30° WSW 12:41:15 10° SSW
Cosmos 2266 Rocket 4.2 22:57:21 10° N 23:03:14 48° E 23:09:01 10° SSE
CZ-4C R/B 3.3 22:56:28 10° NNW 23:03:30 49° NE 23:11:58 10° SE
Cosmos 1503 Rocket 4.2 23:00:42 10° SSW 23:05:57 82° WNW 23:11:11 10° NNE
Thor Agena Rocket 3.6 23:00:50 10° SSE 23:05:58 61° ENE 23:11:03 10° N
Cosmos 1461 4.1 23:05:43 10° WSW 23:09:17 35° NW 23:12:55 10° NNE
Cosmos 1726 Rocket 4.3 23:07:48 10° SSE 23:12:02 36° E 23:16:15 10° NNE
Cosmos 1933 3.3 23:10:38 10° S 23:14:23 57° E 23:18:09 10° NNE
Cosmos 1354 Rocket 4.0 23:10:29 10° SSW 23:15:45 84° ESE 23:21:02 10° NNE
Cosmos 1743 2.5 23:14:32 10° N 23:17:46 75° W 23:20:57 10° S
Cosmos 1980 Rocket 2.7 23:13:37 10° S 23:18:49 39° ESE 23:24:01 10° NE
GEOS 3 Rocket 4.2 23:15:05 10° NNE 23:20:21 58° NW 23:25:36 10° SW
SJ-12 4.1 23:18:33 10° SE 23:22:05 39° ENE 23:25:38 10° N
Cosmos-2242 4.4 23:19:33 10° SE 23:22:29 18° E 23:25:25 10° NE
Okean 1-7 Rocket 3.6 23:19:06 10° N 23:23:26 59° E 23:27:42 10° SSE
Cosmos 1602 Rocket 3.6 23:19:40 10° N 23:24:03 87° WSW 23:28:22 10° S
CORIOLIS 4.1 23:18:45 10° SSE 23:24:04 80° ENE 23:29:25 10° N
YAOGAN 1 4.1 23:22:40 10° E 23:25:02 15° ENE 23:27:24 10° NNE
Cosmos 1898 Rocket 4.4 23:22:15 10° SSE 23:26:32 27° E 23:30:49 10° NE
IRIDIUM 104 4.3 23:23:44 10° N 23:28:59 88° E 23:34:12 10° S
Meteor 1-25 Rocket 4.2 23:25:48 10° N 23:31:36 68° E 23:37:17 10° SSE
SAR-Lupe-4 3.5 23:28:30 10° SSE 23:31:59 57° ENE 23:35:29 10° N
SKYMED 2 4.2 23:28:58 10° NNE 23:32:57 34° E 23:36:53 10° SSE
Cosmos 2263 Rocket 3.0 23:29:12 10° N 23:34:03 28° ENE 23:38:52 10° ESE
Cosmos 2151 3.3 23:30:21 10° NNW 23:34:29 67° W 23:38:36 10° S
SL-16 R/B 4.0 23:30:44 10° N 23:36:20 37° WNW 23:41:54 10° SW
Cosmos 372 Rocket 4.3 23:32:56 10° S 23:37:49 44° ESE 23:42:41 10° NNE
IRS-1C 4.1 23:35:44 10° SSE 23:41:02 80° ENE 23:46:22 10° N
NOSS 2-3 (C) 3.3 23:38:30 10° SW 23:42:00 64° NW 23:45:08 12° NNE
SAR-Lupe-1 4.0 23:39:31 10° SSE 23:43:04 69° ENE 23:46:40 10° N
Cosmos 1937 Rocket 4.3 23:40:30 10° SSE 23:44:56 29° E 23:47:52 17° NE
Helios 1A Rocket 3.9 23:46:13 19° E 23:46:13 19° E 23:48:36 10° SE
Cosmos 1953 Rocket 3.8 23:43:45 10° N 23:48:01 44° E 23:52:17 10° SSE
MOS 1 Rocket 3.3 23:45:22 10° SSE 23:50:11 76° ENE 23:55:18 10° N
BREEZE-M DEB (TANK) 3.7 23:49:38 10° NNW 23:50:25 11° N 23:50:43 11° N
Cosmos 2227 Rocket 2.1 23:45:32 10° NNW 23:51:10 68° ENE 23:56:46 10° SSE
Cosmos 2084 Rocket 3.4 23:47:33 10° NW 23:51:46 84° WSW 23:55:57 10° SSE
EXPRESS MD2 3.0 23:51:16 10° WSW 23:53:37 50° NNW 23:55:08 25° NE
